| time (UTC) | temp F | wind direction | speed MPH | gust MPH | rain 1hr in | rain 24hr in | rain mn in | humidity % | barometer mb |
| 20260505130307 | 55 | 225 | 1.0 | 3.0 | 0.00 | 0.00 | 0.00 | 83 | 1015.2 |
| 20260505124954 | 55 | 225 | 0.0 | 4.0 | 0.00 | 0.00 | 0.00 | 84 | 1015.0 |
| 20260505124225 | 55 | 225 | 2.0 | 4.0 | 0.00 | 0.00 | 0.00 | 84 | 1015.0 |
| 20260505124207 | 55 | 225 | 1.0 | 2.0 | 0.00 | 0.00 | 0.00 | 84 | 1014.9 |
| 20260505123420 | 55 | 225 | 0.0 | 3.0 | 0.00 | 0.00 | 0.00 | 83 | 1014.9 |
| 20260505122654 | 55 | 225 | 1.0 | 3.0 | 0.00 | 0.00 | 0.00 | 83 | 1015.0 |
| 20260505122145 | 55 | 225 | 2.0 | 2.0 | 0.00 | 0.00 | 0.00 | 83 | 1014.9 |
| 20260505121635 | 55 | 225 | 0.0 | 2.0 | 0.00 | 0.00 | 0.00 | 83 | 1015.0 |
| 20260505121125 | 55 | 225 | 0.0 | 2.0 | 0.00 | 0.00 | 0.00 | 83 | 1014.8 |
| 20260505120613 | 55 | 225 | 1.0 | 2.0 | 0.00 | 0.00 | 0.00 | 83 | 1014.9 |
| 20260505120103 | 55 | 225 | 0.0 | 1.0 | 0.00 | 0.00 | 0.00 | 82 | 1015.0 |
| 20260505115553 | 55 | 225 | 0.0 | 1.0 | 0.00 | 0.00 | 0.00 | 82 | 1014.8 |
| 20260505115045 | 55 | 225 | 0.0 | 1.0 | 0.00 | 0.00 | 0.00 | 82 | 1014.9 |
| 20260505114534 | 55 | 225 | 0.0 | 1.0 | 0.00 | 0.00 | 0.00 | 82 | 1014.7 |
| 20260505114023 | 55 | 225 | 0.0 | 1.0 | 0.00 | 0.00 | 0.00 | 82 | 1014.8 |
| 20260505113512 | 55 | 225 | 0.0 | 1.0 | 0.00 | 0.00 | 0.00 | 82 | 1014.8 |
| 20260505113003 | 55 | 225 | 0.0 | 3.0 | 0.00 | 0.00 | 0.00 | 82 | 1015.0 |
| 20260505112453 | 55 | 225 | 0.0 | 3.0 | 0.00 | 0.00 | 0.00 | 82 | 1014.9 |
| 20260505111944 | 55 | 225 | 0.0 | 4.0 | 0.00 | 0.00 | 0.00 | 82 | 1014.8 |
| 20260505111433 | 55 | 225 | 1.0 | 4.0 | 0.00 | 0.00 | 0.00 | 82 | 1014.9 |
| 20260505110922 | 55 | 225 | 2.0 | 2.0 | 0.00 | 0.00 | 0.00 | 82 | 1014.9 |
| 20260505110412 | 55 | 225 | 0.0 | 1.0 | 0.00 | 0.00 | 0.00 | 82 | 1014.7 |
| 20260505101740 | 55 | 225 | 0.0 | 2.0 | 0.00 | 0.00 | 0.00 | 82 | 1014.4 |
| 20260505101231 | 55 | 225 | 0.0 | 2.0 | 0.00 | 0.00 | 0.00 | 81 | 1014.3 |
| 20260505100720 | 55 | 225 | 0.0 | 2.0 | 0.00 | 0.00 | 0.00 | 81 | 1014.4 |
| 20260505100211 | 55 | 225 | 0.0 | 2.0 | 0.00 | 0.00 | 0.00 | 81 | 1014.3 |
| 20260505095700 | 55 | 225 | 0.0 | 2.0 | 0.00 | 0.00 | 0.00 | 81 | 1014.4 |
| 20260505095414 | 55 | 225 | 0.0 | 1.0 | 0.00 | 0.00 | 0.00 | 80 | 1014.4 |
| 20260505094640 | 55 | 225 | 0.0 | 1.0 | 0.00 | 0.00 | 0.00 | 81 | 1014.4 |
| 20260505094130 | 56 | 225 | 0.0 | 1.0 | 0.00 | 0.00 | 0.00 | 81 | 1014.3 |
| 20260505093620 | 56 | 225 | 0.0 | 4.0 | 0.00 | 0.00 | 0.00 | 81 | 1014.2 |
| 20260505093109 | 56 | 225 | 1.0 | 4.0 | 0.00 | 0.00 | 0.00 | 81 | 1014.2 |
| 20260505092559 | 56 | 225 | 0.0 | 1.0 | 0.00 | 0.00 | 0.00 | 80 | 1014.1 |
| 20260505092314 | 56 | 225 | 0.0 | 2.0 | 0.00 | 0.00 | 0.00 | 80 | 1014.0 |
| 20260505091538 | 56 | 225 | 0.0 | 2.0 | 0.00 | 0.00 | 0.00 | 80 | 1014.0 |
| 20260505091258 | 56 | 225 | 0.0 | 0.0 | 0.00 | 0.00 | 0.00 | 79 | 1014.1 |
| 20260505090519 | 56 | 225 | 0.0 | 1.0 | 0.00 | 0.00 | 0.00 | 79 | 1013.9 |
| 20260505090230 | 56 | 225 | 0.0 | 3.0 | 0.00 | 0.00 | 0.00 | 78 | 1013.8 |
| 20260505085458 | 56 | 225 | 0.0 | 3.0 | 0.00 | 0.00 | 0.00 | 78 | 1013.8 |
| 20260505084947 | 57 | 225 | 0.0 | 3.0 | 0.00 | 0.00 | 0.00 | 78 | 1013.9 |
| 20260505084439 | 57 | 225 | 0.0 | 4.0 | 0.00 | 0.00 | 0.00 | 79 | 1013.9 |
| 20260505084145 | 57 | 225 | 2.0 | 4.0 | 0.00 | 0.00 | 0.00 | 79 | 1013.9 |
| 20260505083417 | 57 | 225 | 0.0 | 4.0 | 0.00 | 0.00 | 0.00 | 78 | 1013.9 |
| 20260505082907 | 57 | 225 | 0.0 | 2.0 | 0.00 | 0.00 | 0.00 | 78 | 1013.7 |
| 20260505082618 | 57 | 225 | 0.0 | 2.0 | 0.00 | 0.00 | 0.00 | 77 | 1013.7 |
| 20260505081848 | 57 | 225 | 0.0 | 2.0 | 0.00 | 0.00 | 0.00 | 76 | 1013.8 |
| 20260505081336 | 58 | 225 | 0.0 | 2.0 | 0.00 | 0.00 | 0.00 | 76 | 1013.7 |
| 20260505080827 | 58 | 225 | 0.0 | 2.0 | 0.00 | 0.00 | 0.00 | 76 | 1013.7 |
| 20260505080317 | 58 | 225 | 0.0 | 1.0 | 0.00 | 0.00 | 0.00 | 76 | 1013.7 |
| 20260505075806 | 58 | 225 | 0.0 | 1.0 | 0.00 | 0.00 | 0.00 | 76 | 1013.7 |
| 20260505075257 | 58 | 225 | 0.0 | 1.0 | 0.00 | 0.00 | 0.00 | 76 | 1013.7 |
| 20260505074746 | 58 | 225 | 0.0 | 1.0 | 0.00 | 0.00 | 0.00 | 76 | 1013.6 |
| 20260505074237 | 59 | 225 | 0.0 | 0.0 | 0.00 | 0.00 | 0.00 | 76 | 1013.4 |
| 20260505073725 | 59 | 225 | 0.0 | 1.0 | 0.00 | 0.00 | 0.00 | 76 | 1013.3 |
| 20260505073215 | 59 | 225 | 0.0 | 2.0 | 0.00 | 0.00 | 0.00 | 76 | 1013.3 |
| 20260505072706 | 59 | 225 | 0.0 | 2.0 | 0.00 | 0.00 | 0.00 | 76 | 1013.2 |
| 20260505072417 | 59 | 225 | 0.0 | 2.0 | 0.00 | 0.00 | 0.00 | 75 | 1013.3 |
| 20260505071644 | 59 | 225 | 0.0 | 2.0 | 0.00 | 0.00 | 0.00 | 74 | 1013.0 |
| 20260505071135 | 59 | 225 | 1.0 | 2.0 | 0.00 | 0.00 | 0.00 | 74 | 1013.2 |
| 20260505070625 | 60 | 225 | 0.0 | 1.0 | 0.00 | 0.00 | 0.00 | 74 | 1013.1 |
| 20260505070115 | 60 | 225 | 0.0 | 4.0 | 0.00 | 0.00 | 0.00 | 74 | 1013.0 |
| 20260505065604 | 60 | 225 | 0.0 | 4.0 | 0.00 | 0.00 | 0.00 | 74 | 1012.8 |
| 20260505065054 | 60 | 225 | 0.0 | 3.0 | 0.00 | 0.00 | 0.00 | 74 | 1013.0 |
| 20260505064544 | 60 | 225 | 2.0 | 3.0 | 0.00 | 0.00 | 0.00 | 74 | 1012.7 |
| 20260505064034 | 60 | 225 | 0.0 | 3.0 | 0.00 | 0.00 | 0.00 | 74 | 1012.7 |
| 20260505063525 | 60 | 225 | 0.0 | 3.0 | 0.00 | 0.00 | 0.00 | 75 | 1012.4 |
| 20260505063234 | 60 | 225 | 0.0 | 4.0 | 0.00 | 0.00 | 0.00 | 75 | 1012.5 |
| 20260505062503 | 60 | 225 | 0.0 | 4.0 | 0.00 | 0.00 | 0.00 | 75 | 1012.5 |
| 20260505062436 | 60 | 225 | 0.0 | 2.0 | 0.00 | 0.00 | 0.00 | 75 | 1012.4 |
| 20260505061702 | 60 | 225 | 0.0 | 2.0 | 0.00 | 0.00 | 0.00 | 74 | 1012.3 |
| 20260505060935 | 60 | 225 | 0.0 | 1.0 | 0.00 | 0.00 | 0.00 | 73 | 1012.3 |
| 20260505060423 | 61 | 225 | 0.0 | 1.0 | 0.00 | 0.00 | 0.00 | 71 | 1012.1 |
| 20260505055912 | 61 | 225 | 0.0 | 0.0 | 0.00 | 0.00 | 0.00 | 71 | 1012.2 |
| 20260505055403 | 61 | 225 | 0.0 | 0.0 | 0.00 | 0.00 | 0.00 | 71 | 1012.4 |
| 20260505054853 | 62 | 225 | 0.0 | 0.0 | 0.00 | 0.00 | 0.00 | 70 | 1012.4 |
| 20260505054344 | 63 | 225 | 0.0 | 2.0 | 0.00 | 0.00 | 0.00 | 69 | 1012.2 |
| 20260505053832 | 63 | 225 | 0.0 | 2.0 | 0.00 | 0.00 | 0.00 | 69 | 1012.2 |
| 20260505053321 | 63 | 225 | 0.0 | 2.0 | 0.00 | 0.00 | 0.00 | 69 | 1012.2 |
| 20260505052812 | 63 | 225 | 0.0 | 0.0 | 0.00 | 0.00 | 0.00 | 69 | 1012.2 |
| 20260505052301 | 63 | 225 | 0.0 | 0.0 | 0.00 | 0.00 | 0.00 | 68 | 1012.2 |
| 20260505051753 | 63 | 225 | 0.0 | 2.0 | 0.00 | 0.00 | 0.00 | 68 | 1012.0 |
| 20260505051500 | 63 | 225 | 0.0 | 2.0 | 0.00 | 0.00 | 0.00 | 68 | 1012.1 |
| 20260505050731 | 64 | 225 | 0.0 | 1.0 | 0.00 | 0.00 | 0.00 | 66 | 1011.9 |
| 20260505050221 | 65 | 225 | 0.0 | 1.0 | 0.00 | 0.00 | 0.00 | 65 | 1011.9 |
| 20260505041550 | 68 | 180 | 1.0 | 3.0 | 0.00 | 0.00 | 0.00 | 65 | 1011.3 |
| 20260505041039 | 68 | 180 | 0.0 | 2.0 | 0.00 | 0.00 | 0.00 | 66 | 1011.1 |
| 20260505040759 | 68 | 180 | 0.0 | 2.0 | 0.00 | 0.00 | 0.00 | 66 | 1011.0 |
| 20260505040023 | 68 | 180 | 0.0 | 2.0 | 0.00 | 0.00 | 0.00 | 66 | 1010.9 |
| 20260505035727 | 68 | 180 | 0.0 | 2.0 | 0.00 | 0.00 | 0.00 | 65 | 1010.9 |
| 20260505035225 | 69 | 135 | 0.0 | 8.0 | 0.00 | 0.00 | 0.00 | 65 | 1010.9 |
| 20260505034706 | 69 | 180 | 1.0 | 8.0 | 0.00 | 0.00 | 0.00 | 65 | 1010.6 |
| 20260505033939 | 69 | 135 | 1.0 | 5.0 | 0.00 | 0.00 | 0.00 | 65 | 1010.4 |
| 20260505033429 | 69 | 180 | 2.0 | 4.0 | 0.00 | 0.00 | 0.00 | 65 | 1010.3 |
| 20260505032918 | 69 | 135 | 1.0 | 3.0 | 0.00 | 0.00 | 0.00 | 64 | 1010.3 |
| 20260505032409 | 69 | 135 | 0.0 | 4.0 | 0.00 | 0.00 | 0.00 | 64 | 1010.3 |
| 20260505031857 | 70 | 135 | 2.0 | 5.0 | 0.00 | 0.00 | 0.00 | 62 | 1010.2 |
| 20260505031348 | 70 | 180 | 0.0 | 7.0 | 0.00 | 0.00 | 0.00 | 62 | 1010.1 |
| 20260505030839 | 70 | 135 | 4.0 | 7.0 | 0.00 | 0.00 | 0.00 | 62 | 1010.2 |
| 20260505030327 | 70 | 135 | 2.0 | 6.0 | 0.00 | 0.00 | 0.00 | 61 | 1010.0 |
| 20260505025818 | 71 | 135 | 1.0 | 7.0 | 0.00 | 0.00 | 0.00 | 61 | 1010.1 |
| 20260505025307 | 71 | 180 | 2.0 | 8.0 | 0.00 | 0.00 | 0.00 | 61 | 1009.9 |
| 20260505024757 | 71 | 135 | 4.0 | 8.0 | 0.00 | 0.00 | 0.00 | 61 | 1009.8 |
| 20260505024248 | 71 | 135 | 1.0 | 6.0 | 0.00 | 0.00 | 0.00 | 60 | 1009.8 |
| 20260505023736 | 71 | 135 | 1.0 | 6.0 | 0.00 | 0.00 | 0.00 | 60 | 1009.9 |
| 20260505023227 | 71 | 135 | 0.0 | 8.0 | 0.00 | 0.00 | 0.00 | 60 | 1009.9 |
| 20260505022717 | 71 | 135 | 2.0 | 8.0 | 0.00 | 0.00 | 0.00 | 60 | 1009.9 |
| 20260505022206 | 72 | 180 | 2.0 | 8.0 | 0.00 | 0.00 | 0.00 | 58 | 1009.8 |
| 20260505021658 | 72 | 135 | 4.0 | 8.0 | 0.00 | 0.00 | 0.00 | 58 | 1010.1 |
| 20260505021146 | 72 | 180 | 0.0 | 6.0 | 0.00 | 0.00 | 0.00 | 58 | 1010.0 |
| 20260505020636 | 72 | 135 | 0.0 | 7.0 | 0.00 | 0.00 | 0.00 | 57 | 1009.9 |
| 20260505020126 | 73 | 180 | 3.0 | 7.0 | 0.00 | 0.00 | 0.00 | 57 | 1009.9 |
| 20260505015615 | 73 | 180 | 2.0 | 8.0 | 0.00 | 0.00 | 0.00 | 57 | 1009.9 |
| 20260505015107 | 73 | 158 | 4.0 | 9.0 | 0.00 | 0.00 | 0.00 | 56 | 1009.9 |
| 20260505014556 | 73 | 180 | 4.0 | 9.0 | 0.00 | 0.00 | 0.00 | 56 | 1009.7 |
| 20260505014045 | 73 | 135 | 2.0 | 8.0 | 0.00 | 0.00 | 0.00 | 56 | 1009.9 |
| 20260505013535 | 73 | 180 | 5.0 | 8.0 | 0.00 | 0.00 | 0.00 | 55 | 1009.9 |
| 20260505013025 | 73 | 135 | 2.0 | 6.0 | 0.00 | 0.00 | 0.00 | 55 | 1010.2 |
| 20260505012517 | 73 | 135 | 3.0 | 7.0 | 0.00 | 0.00 | 0.00 | 55 | 1010.1 |
| 20260505012221 | 73 | 135 | 0.0 | 8.0 | 0.00 | 0.00 | 0.00 | 55 | 1010.2 |
| 20260505011454 | 73 | 180 | 4.0 | 8.0 | 0.00 | 0.00 | 0.00 | 54 | 1010.2 |
| 20260505010945 | 73 | 180 | 5.0 | 8.0 | 0.00 | 0.00 | 0.00 | 55 | 1010.0 |
| 20260505010434 | 73 | 135 | 2.0 | 8.0 | 0.00 | 0.00 | 0.00 | 55 | 1010.2 |
| 20260505005927 | 73 | 135 | 2.0 | 7.0 | 0.00 | 0.00 | 0.00 | 55 | 1010.2 |
| 20260505005414 | 73 | 180 | 3.0 | 7.0 | 0.00 | 0.00 | 0.00 | 55 | 1010.1 |
| 20260505005123 | 73 | 135 | 3.0 | 6.0 | 0.00 | 0.00 | 0.00 | 55 | 1010.3 |
| 20260505004353 | 73 | 135 | 2.0 | 8.0 | 0.00 | 0.00 | 0.00 | 55 | 1010.3 |
| 20260505003844 | 73 | 180 | 4.0 | 9.0 | 0.00 | 0.00 | 0.00 | 54 | 1010.2 |
| 20260505003335 | 73 | 180 | 1.0 | 9.0 | 0.00 | 0.00 | 0.00 | 53 | 1010.3 |
| 20260505002823 | 73 | 180 | 2.0 | 9.0 | 0.00 | 0.00 | 0.00 | 54 | 1010.3 |
| 20260505002537 | 73 | 158 | 6.0 | 9.0 | 0.00 | 0.00 | 0.00 | 54 | 1010.5 |
| 20260505001803 | 73 | 135 | 4.0 | 7.0 | 0.00 | 0.00 | 0.00 | 54 | 1010.4 |
| 20260505001253 | 74 | 180 | 2.0 | 7.0 | 0.00 | 0.00 | 0.00 | 53 | 1010.4 |
| 20260505000744 | 74 | 135 | 2.0 | 6.0 | 0.00 | 0.00 | 0.00 | 53 | 1010.5 |
| 20260505000233 | 74 | 180 | 0.0 | 8.0 | 0.00 | 0.00 | 0.00 | 54 | 1010.6 |
| 20260504235951 | 74 | 180 | 2.0 | 8.0 | 0.00 | 0.00 | 0.00 | 53 | 1010.4 |
| 20260504235213 | 74 | 180 | 3.0 | 8.0 | 0.00 | 0.00 | 0.00 | 53 | 1010.6 |
| 20260504234702 | 74 | 180 | 3.0 | 8.0 | 0.00 | 0.00 | 0.00 | 53 | 1010.6 |
| 20260504234153 | 73 | 158 | 5.0 | 8.0 | 0.00 | 0.00 | 0.00 | 53 | 1010.4 |
| 20260504233642 | 74 | 135 | 2.0 | 8.0 | 0.00 | 0.00 | 0.00 | 53 | 1010.4 |
| 20260504233132 | 74 | 180 | 2.0 | 10.0 | 0.00 | 0.00 | 0.00 | 53 | 1010.6 |
| 20260504232846 | 73 | 135 | 2.0 | 10.0 | 0.00 | 0.00 | 0.00 | 51 | 1010.6 |
| 20260504232111 | 73 | 180 | 0.0 | 8.0 | 0.00 | 0.00 | 0.00 | 51 | 1010.8 |
| 20260504231602 | 73 | 158 | 4.0 | 8.0 | 0.00 | 0.00 | 0.00 | 51 | 1010.9 |
| 20260504231052 | 73 | 135 | 0.0 | 7.0 | 0.00 | 0.00 | 0.00 | 51 | 1010.8 |
| 20260504230544 | 73 | 158 | 2.0 | 7.0 | 0.00 | 0.00 | 0.00 | 51 | 1010.8 |
| 20260504230030 | 73 | 135 | 4.0 | 8.0 | 0.00 | 0.00 | 0.00 | 50 | 1011.0 |
| 20260504225742 | 73 | 135 | 3.0 | 8.0 | 0.00 | 0.00 | 0.00 | 50 | 1011.1 |
| 20260504225011 | 73 | 135 | 0.0 | 7.0 | 0.00 | 0.00 | 0.00 | 50 | 1011.2 |
| 20260504224500 | 72 | 135 | 4.0 | 7.0 | 0.00 | 0.00 | 0.00 | 50 | 1011.2 |
| 20260504223950 | 72 | 270 | 1.0 | 7.0 | 0.00 | 0.00 | 0.00 | 50 | 1011.2 |
| 20260504223656 | 73 | 225 | 1.0 | 7.0 | 0.00 | 0.00 | 0.00 | 49 | 1011.4 |
| 20260504222931 | 73 | 180 | 2.0 | 7.0 | 0.00 | 0.00 | 0.00 | 50 | 1011.4 |
| 20260504222422 | 73 | 225 | 0.0 | 4.0 | 0.00 | 0.00 | 0.00 | 50 | 1011.6 |
| 20260504221910 | 73 | 225 | 2.0 | 4.0 | 0.00 | 0.00 | 0.00 | 51 | 1011.6 |
| 20260504221359 | 72 | 225 | 1.0 | 7.0 | 0.00 | 0.00 | 0.00 | 51 | 1011.5 |
| 20260504220849 | 72 | 270 | 1.0 | 7.0 | 0.00 | 0.00 | 0.00 | 50 | 1011.5 |
| 20260504220339 | 72 | 180 | 0.0 | 8.0 | 0.00 | 0.00 | 0.00 | 51 | 1011.5 |
| 20260504215831 | 72 | 135 | 4.0 | 8.0 | 0.00 | 0.00 | 0.00 | 50 | 1011.8 |
| 20260504215319 | 72 | 135 | 2.0 | 5.0 | 0.00 | 0.00 | 0.00 | 50 | 1011.7 |
| 20260504215026 | 73 | 135 | 3.0 | 5.0 | 0.00 | 0.00 | 0.00 | 49 | 1011.9 |
| 20260504214258 | 74 | 135 | 0.0 | 5.0 | 0.00 | 0.00 | 0.00 | 51 | 1011.8 |
| 20260504213748 | 73 | 135 | 2.0 | 8.0 | 0.00 | 0.00 | 0.00 | 50 | 1012.0 |
| 20260504213240 | 73 | 135 | 5.0 | 8.0 | 0.00 | 0.00 | 0.00 | 50 | 1012.0 |
| 20260504212729 | 73 | 315 | 2.0 | 4.0 | 0.00 | 0.00 | 0.00 | 49 | 1012.2 |
| 20260504212218 | 73 | 180 | 1.0 | 8.0 | 0.00 | 0.00 | 0.00 | 50 | 1012.1 |
| 20260504211708 | 73 | 135 | 2.0 | 8.0 | 0.00 | 0.00 | 0.00 | 50 | 1012.4 |
| 20260504211158 | 73 | 135 | 2.0 | 8.0 | 0.00 | 0.00 | 0.00 | 50 | 1012.2 |
| 20260504210650 | 74 | 180 | 4.0 | 8.0 | 0.00 | 0.00 | 0.00 | 50 | 1012.1 |
| 20260504210138 | 73 | 248 | 1.0 | 6.0 | 0.00 | 0.00 | 0.00 | 51 | 1012.3 |
| 20260504205628 | 73 | 135 | 2.0 | 6.0 | 0.00 | 0.00 | 0.00 | 50 | 1012.5 |
| 20260504205117 | 73 | 158 | 2.0 | 5.0 | 0.00 | 0.00 | 0.00 | 50 | 1012.6 |
| 20260504204825 | 72 | 135 | 1.0 | 5.0 | 0.00 | 0.00 | 0.00 | 51 | 1012.8 |
| 20260504204607 | 72 | 135 | 1.0 | 5.0 | 0.00 | 0.00 | 0.00 | 51 | 1012.8 |
| 20260504204058 | 72 | 180 | 1.0 | 7.0 | 0.00 | 0.00 | 0.00 | 51 | 1012.8 |
| 20260504203548 | 71 | 135 | 2.0 | 8.0 | 0.00 | 0.00 | 0.00 | 53 | 1013.0 |
| 20260504203037 | 71 | 180 | 2.0 | 8.0 | 0.00 | 0.00 | 0.00 | 52 | 1013.0 |
| 20260504203008 | 71 | 225 | 1.0 | 4.0 | 0.00 | 0.00 | 0.00 | 54 | 1013.0 |
| 20260504202016 | 70 | 180 | 2.0 | 7.0 | 0.00 | 0.00 | 0.00 | 54 | 1013.0 |
| 20260504201725 | 69 | 180 | 2.0 | 8.0 | 0.00 | 0.00 | 0.00 | 55 | 1012.9 |
| 20260504200956 | 70 | 135 | 4.0 | 8.0 | 0.00 | 0.00 | 0.00 | 56 | 1013.2 |
| 20260504200447 | 69 | 180 | 2.0 | 8.0 | 0.00 | 0.00 | 0.00 | 56 | 1013.2 |
| 20260504195935 | 68 | 180 | 4.0 | 8.0 | 0.00 | 0.00 | 0.00 | 56 | 1013.2 |
| 20260504195426 | 68 | 180 | 3.0 | 9.0 | 0.00 | 0.00 | 0.00 | 57 | 1013.3 |
| 20260504195140 | 68 | 180 | 4.0 | 9.0 | 0.00 | 0.00 | 0.00 | 57 | 1013.3 |
| 20260504194406 | 68 | 158 | 4.0 | 8.0 | 0.00 | 0.00 | 0.00 | 56 | 1013.3 |
| 20260504193856 | 68 | 180 | 3.0 | 7.0 | 0.00 | 0.00 | 0.00 | 60 | 1013.6 |
| 20260504193346 | 67 | 135 | 2.0 | 7.0 | 0.00 | 0.00 | 0.00 | 60 | 1013.7 |
| 20260504192835 | 66 | 135 | 5.0 | 8.0 | 0.00 | 0.00 | 0.00 | 60 | 1013.5 |
| 20260504192326 | 67 | 135 | 4.0 | 8.0 | 0.00 | 0.00 | 0.00 | 60 | 1013.3 |
| 20260504191814 | 67 | 180 | 4.0 | 8.0 | 0.00 | 0.00 | 0.00 | 61 | 1013.4 |
| 20260504191305 | 66 | 180 | 2.0 | 8.0 | 0.00 | 0.00 | 0.00 | 62 | 1013.4 |
| 20260504191017 | 66 | 180 | 4.0 | 8.0 | 0.00 | 0.00 | 0.00 | 62 | 1013.4 |
| 20260504190244 | 65 | 225 | 0.0 | 8.0 | 0.00 | 0.00 | 0.00 | 63 | 1013.5 |
| 20260504185735 | 65 | 180 | 0.0 | 8.0 | 0.00 | 0.00 | 0.00 | 63 | 1013.7 |
| 20260504185701 | 64 | 180 | 2.0 | 8.0 | 0.00 | 0.00 | 0.00 | 64 | 1013.6 |
| 20260504184714 | 64 | 135 | 3.0 | 8.0 | 0.00 | 0.00 | 0.00 | 64 | 1013.8 |
| 20260504184204 | 65 | 180 | 5.0 | 8.0 | 0.00 | 0.00 | 0.00 | 63 | 1013.7 |
| 20260504183653 | 64 | 135 | 4.0 | 8.0 | 0.00 | 0.00 | 0.00 | 64 | 1013.8 |
| 20260504183144 | 64 | 180 | 0.0 | 8.0 | 0.00 | 0.00 | 0.00 | 66 | 1013.7 |
| 20260504182634 | 64 | 135 | 2.0 | 8.0 | 0.00 | 0.00 | 0.00 | 64 | 1013.6 |
| 20260504182123 | 64 | 158 | 2.0 | 6.0 | 0.00 | 0.00 | 0.00 | 66 | 1013.7 |
| 20260504181613 | 63 | 225 | 2.0 | 6.0 | 0.00 | 0.00 | 0.00 | 68 | 1013.5 |
| 20260504181327 | 63 | 158 | 2.0 | 5.0 | 0.00 | 0.00 | 0.00 | 68 | 1013.7 |
| 20260504180554 | 63 | 225 | 2.0 | 4.0 | 0.00 | 0.00 | 0.00 | 68 | 1013.7 |
| 20260504180043 | 62 | 135 | 1.0 | 7.0 | 0.00 | 0.00 | 0.00 | 70 | 1013.9 |
| 20260504175533 | 62 | 158 | 1.0 | 7.0 | 0.00 | 0.00 | 0.00 | 70 | 1013.5 |
| 20260504175244 | 61 | 225 | 0.0 | 4.0 | 0.00 | 0.00 | 0.00 | 71 | 1013.8 |
| 20260504174512 | 61 | 180 | 1.0 | 3.0 | 0.00 | 0.00 | 0.00 | 71 | 1013.7 |
| 20260504174004 | 61 | 225 | 2.0 | 2.0 | 0.00 | 0.00 | 0.00 | 72 | 1013.7 |
| 20260504173452 | 61 | 180 | 1.0 | 4.0 | 0.00 | 0.00 | 0.00 | 74 | 1013.7 |
| 20260504173203 | 60 | 180 | 0.0 | 5.0 | 0.00 | 0.00 | 0.00 | 74 | 1013.7 |
| 20260504172433 | 60 | 135 | 2.0 | 8.0 | 0.00 | 0.00 | 0.00 | 75 | 1013.7 |
| 20260504171921 | 59 | 158 | 2.0 | 8.0 | 0.00 | 0.00 | 0.00 | 75 | 1013.7 |
| 20260504171412 | 59 | 135 | 3.0 | 9.0 | 0.00 | 0.00 | 0.00 | 76 | 1013.8 |
| 20260504170901 | 59 | 180 | 5.0 | 9.0 | 0.00 | 0.00 | 0.00 | 76 | 1013.8 |
| 20260504170613 | 59 | 180 | 3.0 | 9.0 | 0.00 | 0.00 | 0.00 | 77 | 1013.8 |
| 20260504151008 | 58 | 135 | 2.0 | 13.0 | 0.00 | 0.00 | 0.00 | 76 | 1013.2 |
| 20260504150459 | 59 | 135 | 4.0 | 11.0 | 0.00 | 0.00 | 0.00 | 74 | 1013.3 |
| 20260504150211 | 60 | 135 | 4.0 | 11.0 | 0.00 | 0.00 | 0.00 | 73 | 1012.9 |
| 20260504141317 | 58 | 135 | 2.0 | 7.0 | 0.00 | 0.00 | 0.00 | 77 | 1012.4 |
| 20260504140806 | 58 | 158 | 2.0 | 7.0 | 0.00 | 0.00 | 0.00 | 77 | 1012.5 |
| 20260504140255 | 58 | 135 | 2.0 | 9.0 | 0.00 | 0.00 | 0.00 | 78 | 1012.3 |